Flag for Canada Weather past 2 weeks in Stonewall, Manitoba, Canada

Now
63 °F

Clear.


Feels Like: 63 °F
Forecast: 52 / 73 °F
Wind: 12 mph from South

Location: Winnipeg Int. Airportman.

Current Time: Sep 22, 2014 at 10:26:20 PM

Latest Report: Sep 22, 2014 at 10:00 PM


Visibility: 15 mi

Pressure: 30.00 "Hg

Humidity: 59%

Dew point: 48 °F

Location of StonewallLocation

Historic Weather in Stonewall — Graph

°F

Stonewall temperature yesterday

Maximum temperature yesterday: 64 °F (at 3:00 PM)
Minimum temperature yesterday: 46 °F (at 5:00 AM)
Average temperature yesterday: 55 °F

Past Weeks' High & Low Weather Summary

 TemperatureHumidityPressure
High79 °F (Sep 22, 3:00 PM)100% (Sep 14, 1:00 AM)30.47 "Hg (Sep 14, 1:00 AM)
Low34 °F (Sep 12, 7:00 AM)28% (Sep 15, 3:00 PM)29.45 "Hg (Sep 19, 8:00 AM)
Average52 °F73%30.03 "Hg
* Reported Sep 7 9:00 PM — Sep 22 9:00 PM, Stonewall, Weather by CustomWeather, © 2014

Note: Actual official high and low records may vary slightly from our data, if they occured in-between our weather recording intervals... More about our weather records

Advertising

Stonewall weather history for previous 24 hours

 ConditionsComfort  
Time TempWeatherWind HumidityBarometerVisibility
9:00 PM
Sep 22
64 °FClear.10 mph56%30.00 "Hg15 mi
8:00 PM66 °FSunny.8 mph52%30.00 "Hg15 mi
7:00 PM72 °FPassing clouds.5 mph50%29.98 "Hg15 mi
6:00 PM77 °FPassing clouds.5 mph36%29.98 "Hg15 mi
5:00 PM79 °FPassing clouds.7 mph32%29.98 "Hg15 mi
4:00 PM79 °FPassing clouds.8 mph30%30.00 "Hg15 mi
3:00 PM79 °FPassing clouds.10 mph30%30.01 "Hg15 mi
2:00 PM77 °FPassing clouds.10 mph34%30.02 "Hg15 mi
1:00 PM73 °FPassing clouds.8 mph44%30.04 "Hg15 mi
12:00 PM70 °FPassing clouds.9 mph50%30.05 "Hg15 mi
11:00 AM66 °FPassing clouds.7 mph56%30.07 "Hg15 mi
10:00 AM61 °FSunny.14 mph63%30.07 "Hg15 mi
9:00 AM54 °FSunny.8 mph77%30.08 "Hg15 mi
8:00 AM50 °FClear.8 mph82%30.09 "Hg15 mi
7:00 AM48 °FClear.7 mph87%30.09 "Hg15 mi
6:00 AM50 °FClear.7 mph82%30.09 "Hg15 mi
5:00 AM50 °FClear.9 mph82%30.08 "Hg15 mi
4:00 AM52 °FClear.12 mph77%30.09 "Hg15 mi
3:00 AM52 °FClear.10 mph82%30.09 "Hg15 mi
2:00 AM52 °FClear.12 mph82%30.11 "Hg15 mi
1:00 AM54 °FClear.12 mph82%30.11 "Hg15 mi
12:00 AM54 °FClear.9 mph82%30.12 "Hg15 mi
11:00 PM
Sep 21
54 °FClear.9 mph82%30.13 "Hg15 mi
10:00 PM55 °FClear.10 mph82%30.14 "Hg15 mi
Weather by CustomWeather, © 2014

See weather overviewHow to use our weather pages